Preview of NWS' New Version of Forecast
This preview is not operational and should not be used for support decisions.

Regional Weather Roundup (RWR)

Issued by Melbourne, FL (MLB)

                            
000
ASUS42 KMLB 170511
RWRMLB
HOURLY WEATHER ROUNDUP AROUND FLORIDA
NATIONAL WEATHER SERVICE OFFICE MELBOURNE FL
1200 AM EST MON DEC 17 2018
  
CITY           SKY/WX    TMP DP  RH WIND       PRES   REMARKS
MELBOURNE      FAIR      55  50  83 W8        30.13S                  
FORT PIERCE    FAIR      57  53  86 W6        30.13S                  
ORLANDO INTL   FAIR      54  51  90 W6        30.14F                  
DAYTONA BEACH  FAIR      53  51  93 NW5       30.14S                  
VERO BEACH     FAIR      58  53  84 NW9       30.13S                  
$$
...ELSEWHERE ACROSS CENTRAL FLORIDA...
  
CITY           SKY/WX    TMP DP  RH WIND       PRES   REMARKS
PATRICK AFB    FAIR      57  53  87 W12       30.12F                  
KSC            FAIR      55  50  85 NW8       30.12S                  
CAPE CANAVERAL FAIR      56  50  79 NW10      30.11F                  
ORLANDO EXEC   FAIR      54  51  90 NW8       30.14F                  
LEESBURG       FAIR      52  49  89 N9        30.16S                  
SANFORD        FAIR      53  51  93 W8        30.14S                  
DELAND         FAIR      52  50  93 NW5       30.14F                  
WINTER HAVEN   FAIR      55  52  89 W6        30.16F                  
KISSIMMEE      FAIR      55  52  89 NW7       30.15F                  
OKEECHOBEE     FAIR      55  52  88 NW6       30.14S                  
TAMPA          CLOUDY    59  53  80 NW5       30.16F                  
$$
...NORTHERN FLORIDA...
  
CITY           SKY/WX    TMP DP  RH WIND       PRES   REMARKS
PALM COAST     FAIR      50  47  92 CALM      30.15S                  
ST AUGUSTINE   FAIR      49  46  90 W5        30.15S                  
OCALA          FAIR      48  45  89 N6        30.17S                  
GAINESVILLE    FAIR      47  44  90 W3        30.18F                  
JACKSONVILLE   FAIR      47  44  90 CALM      30.12F                  
TALLAHASSEE    FAIR      49  47  93 W5        30.16F                  
$$
...ALONG THE SOUTHEAST COAST TO THE KEYS...
  
CITY           SKY/WX    TMP DP  RH WIND       PRES   REMARKS
STUART         FAIR      63  55  77 NW9       30.14S                  
WEST PALM BCH  FAIR      64  61  90 NW9       30.12S                  
MIAMI          FAIR      66  61  84 VRB6      30.12F                  
KEY WEST       FAIR      71  64  78 NW3       30.13F                  
$$
...MARINE REPORTS...
  
STATION/POSITION TIME  TEMP    WIND        PRES    WAVE   SWELL
                       AIR SEA DIR/SP/G            HT/PER HT/PER
                 (UTC) (F)     (DEG/KT/KT) (MB)    (FT/S) (FT/S)
ST AUGUSTINE FP  0500   51 60  260/  4/  4 1020.8F
20NM E CAPE CANA 0450   63     290/ 17/ 21 1019.7F   4/ 4   2/ 9
TRIDENT PIER     0442   58 67  270/  8/ 13 1021.3F
SEBASTIAN INLET  0445   59 60  300/  8     1021.0S
4NM E PORT CANAV 0500      67                N/A     2/ 8
6NM NE FPR INLET 0500      78                N/A     3/13   2/13
SETTLEMENT PT GB 0500   73      20/ 10/ 14 1018.5F
$$